Regional Weather Roundup
Issued by NWS

Home | Current Version | Previous Version | Graphics & Text | Print | Product List | Glossary On
Versions: 1 2 3 4 5 6 7 8 9 10 11 12 13 14 15 16 17 18 19 20 21 22 23 24 25 26 27 28 29 30 31 32 33 34 35 36 37 38 39 40 41 42 43 44 45 46 47 48 49 50
000
ASUS43 KOAX 010710
RWRNE

WEATHER ROUNDUP FOR NEBRASKA
NATIONAL WEATHER SERVICE OMAHA NE
200 AM CDT WED JUL 01 2015

NOTES: SATELLITE DATA IS BEING USED TO AUGMENT CLOUD COVER ABOVE
       12000 FEET.
       "FAIR" INDICATES FEW OR NO CLOUDS BELOW 12,000 FEET WITH NO
       SIGNIFICANT WEATHER AND/OR OBSTRUCTIONS TO VISIBILITY.

  * THESE STATIONS DO NOT REPORT WEATHER SUCH AS RAIN...SNOW OR FOG.

NEZ001>004-019>022-054>056-010800-
NEBRASKA PANHANDLE

CITY           SKY/WX    TMP DP  RH WIND       PRES   REMARKS
SCOTTSBLUFF    PTCLDY    69  58  67 NW10      30.01F
ALLIANCE       PTCLDY    68  64  87 W9        29.99R
CHADRON        PTCLDY    66  64  93 SW9       29.93F
KIMBALL          N/A    N/A N/A N/A MISG        N/A
SIDNEY         CLOUDY    69  58  67 NW10      30.03F
$$

NEZ057>060-069>072-079>082-010800-
SOUTHWEST NEBRASKA

CITY           SKY/WX    TMP DP  RH WIND       PRES   REMARKS
NORTH PLATTE   PTCLDY    70  66  87 E9        29.86F
IMPERIAL       CLOUDY    76  56  49 W8        29.88F
LEXINGTON      MOCLDY    70  64  81 E3        29.89R
MCCOOK         MOCLDY    79  54  41 W7        29.82F
OGALLALA       CLOUDY    74  62  65 W10       29.89R
$$

NEZ005>010-023>029-035>040-094-010800-
NORTH CENTRAL NEBRASKA

CITY           SKY/WX    TMP DP  RH WIND       PRES   REMARKS
VALENTINE      CLEAR     64  61  90 S5        29.90S
AINSWORTH      PTCLDY    65  62  87 SE6       29.90S
BROKEN BOW     CLEAR     66  62  87 E7        29.89S
O`NEILL        MOCLDY    67  64  89 E5        29.89S
ORD            MOCLDY    68  61  78 SE8       29.86F
THEDFORD       PTCLDY    65  62  89 E5        29.91F
$$

NEZ041-046>049-061>064-073>077-083>087-010800-
SOUTH CENTRAL NEBRASKA

CITY           SKY/WX    TMP DP  RH WIND       PRES   REMARKS
GRAND ISLAND   MOCLDY    71  60  68 E18       29.86F
AURORA         MOCLDY    70  62  75 E21G28    29.84F
HASTINGS       CLOUDY    70  63  78 E14G23    29.86F
HEBRON         MOCLDY    74  64  71 NE13G26   29.88R
HOLDREGE       MOCLDY    72  67  83 E8        29.86S
KEARNEY *      MOCLDY    70  63  78 E17       29.87R
YORK           CLOUDY    68  64  88 SE23G32   29.85F
$$

NEZ011>018-030>034-042>045-010800-
NORTHEAST NEBRASKA

CITY           SKY/WX    TMP DP  RH WIND       PRES   REMARKS
NORFOLK        CLOUDY    66  64  93 E8        29.87F
ALBION         CLOUDY    68  61  78 SE10      29.86F
BLAIR          LGT RAIN  67  64  89 SE5       29.89F
COLUMBUS *     CLOUDY   N/A N/A N/A SE12      29.85F
FREMONT        CLOUDY    69  65  89 E5        29.88F
TEKAMAH        CLOUDY    69  67  93 SE6       29.89F FOG
WAYNE          MOCLDY    66  65  94 E3        29.90F
$$

NEZ050>053-065>068-078-088>093-010800-
SOUTHEAST NEBRASKA

CITY           SKY/WX    TMP DP  RH WIND       PRES   REMARKS
LINCOLN        LGT RAIN  69  66  90 SE16G33   29.89F FOG
OMAHA EPPLEY   CLOUDY    69  66  90 SE12      29.88F
BEATRICE       HVY RAIN  71  65  83 NE17G23   29.93R
FALLS CITY     HVY RAIN  71  65  81 NE9       29.89R
NEBRASKA CITY  RAIN      69  66  91 CALM      29.94S
PLATTSMOUTH    RAIN      67  64  90 S10       29.89F
$$

NEZ044-045-051>053-067-010800-
OMAHA AREA

CITY           SKY/WX    TMP DP  RH WIND       PRES   REMARKS
OMAHA EPPLEY   CLOUDY    69  66  90 SE12      29.88F
BLAIR          LGT RAIN  67  64  89 SE5       29.89F
FREMONT        CLOUDY    69  65  89 E5        29.88F
MILLARD        LGT RAIN  68  65  90 SE8       29.87F
OFFUTT AFB     CLOUDY    68  66  93 SE8       29.87F
PLATTSMOUTH    RAIN      67  64  90 S10       29.89F
WAHOO          FAIR      68  65  89 SE14G23   29.86F
$$


USA.gov is the U.S. government's official web portal to all federal, state and local government web resources and services.